Weather History for MMLO - February, 2012

Change the Weather History Date:

Saturday, February 25, 2012

  Actual Average Record
Temperature  
Mean Temperature 64 °F -  
Max Temperature 80 °F 79 °F 89 °F (2009)
Min Temperature 48 °F 45 °F 33 °F (2004)
Degree Days  
Heating Degree Days 1    
Growing Degree Days 14 (Base 50)    
Moisture  
Dew Point 41 °F    
Average Humidity 48    
Maximum Humidity 100    
Minimum Humidity 22    
Precipitation  
Precipitation 0.00 in - - ()
Sea Level Pressure  
Sea Level Pressure 30.08 in    
Wind  
Wind Speed 3 mph ()    
Max Wind Speed 10 mph    
Max Gust Speed -    
Visibility 8.8 miles    
Events      
Averages and records for this station are not official NWS values.
T = Trace of Precipitation, MM = Missing Value Source: Averaged Metar Reports

Daily Weather History Graph

Daily Weather History Graph

Search for Another Location

Airport or City:

Trip Planner

Search our weather history database for the weather conditions in past years. The results will help you decide how hot, cold, wet, or windy it might be!

Date:

Astronomy

Feb. 25, 2012 Rise Set
Actual Time 7:09 AM CST 6:48 PM CST
Civil Twilight 6:47 AM CST 7:11 PM CST
Nautical Twilight 6:21 AM CST 7:36 PM CST
Astronomical Twilight 5:55 AM CST 8:02 PM CST
Moon 9:11 AM CST (2/25) 10:10 PM CST (2/25)
Length of Visible Light 12h 23m
Length of Day
11h 38m
Waxing Crescent, 14% of the Moon is Illuminated
Feb 25
Waxing Crescent
Feb 29
First Quarter
Mar 8
Full
Mar 14
Last Quarter
Mar 22
New

Hourly Weather History & Observations

Time (CST) Temp. Dew Point Humidity Pressure Visibility Wind Dir Wind Speed Gust Speed Precip Events Conditions
12:50 AM 55.4 °F 39.2 °F 54% 30.21 in 8.0 mi NNE 5.8 mph - N/A   Scattered Clouds
1:45 AM 53.6 °F 39.2 °F 58% 30.20 in 8.0 mi NE 6.9 mph - N/A   Scattered Clouds
2:50 AM 50.0 °F 39.2 °F 66% 29.89 in 8.0 mi Calm Calm - N/A   Scattered Clouds
3:40 AM 51.8 °F 39.2 °F 62% 30.18 in 8.0 mi Calm Calm - N/A   Scattered Clouds
4:48 AM 48.2 °F 37.4 °F 66% 30.18 in 8.0 mi Calm Calm - N/A   Scattered Clouds
5:50 AM 48.2 °F 37.4 °F 66% 29.89 in 8.0 mi North 5.8 mph - N/A   Clear
6:43 AM 48.2 °F 37.4 °F 66% 30.20 in 10.0 mi Calm Calm - N/A   Clear
7:41 AM 48.2 °F 48.2 °F 100% 30.24 in 8.0 mi NE 3.5 mph - N/A   Clear
8:47 AM 59.0 °F 48.2 °F 67% 29.96 in 8.0 mi Calm Calm - N/A   Clear
9:40 AM 66.2 °F 46.4 °F 49% 30.27 in 8.0 mi Calm Calm - N/A   Clear
10:41 AM 69.8 °F 46.4 °F 43% 30.27 in 9.0 mi SSW 4.6 mph - N/A   Partly Cloudy
11:40 AM 71.6 °F 46.4 °F 41% 29.93 in 9.0 mi SSW 6.9 mph - N/A   Partly Cloudy
12:41 PM 75.2 °F 44.6 °F 34% 30.22 in 10.0 mi Calm Calm - N/A   Scattered Clouds
1:40 PM 78.8 °F 44.6 °F 30% 30.19 in 10.0 mi Calm Calm - N/A   Scattered Clouds
2:40 PM 80.6 °F 42.8 °F 26% 29.80 in 10.0 mi Calm Calm - N/A   Scattered Clouds
3:42 PM 80.6 °F 39.2 °F 23% 30.12 in 10.0 mi West 10.4 mph - N/A   Scattered Clouds
4:46 PM 80.6 °F 39.2 °F 23% 30.09 in 10.0 mi Calm Calm - N/A   Scattered Clouds
5:46 PM 78.8 °F 39.2 °F 24% 29.78 in 10.0 mi Calm Calm - N/A   Scattered Clouds
6:44 PM 73.4 °F 32.0 °F 22% 30.09 in 10.0 mi WSW 6.9 mph - N/A   Partly Cloudy
7:46 PM 68.0 °F 33.8 °F 28% 30.12 in 9.0 mi SW 6.9 mph - N/A   Partly Cloudy
8:42 PM 64.4 °F 33.8 °F 32% 29.84 in 8.0 mi West 3.5 mph - N/A   Clear
9:46 PM 57.2 °F 42.8 °F 59% 30.21 in 8.0 mi East 5.8 mph - N/A   Clear
10:43 PM 57.2 °F 42.8 °F 59% 30.24 in 8.0 mi NE 3.5 mph - N/A   Clear
11:40 PM 55.4 °F 42.8 °F 63% 29.91 in 8.0 mi NE 3.5 mph - N/A   Clear